Date,TemperatureHighF,TemperatureAvgF,TemperatureLowF,DewpointHighF,DewpointAvgF,DewpointLowF,HumidityHigh,HumidityAvg,HumidityLow,PressureMaxIn,PressureMinIn,WindSpeedMaxMPH,WindSpeedAvgMPH,GustSpeedMaxMPH,PrecipitationSumIn
2013-1-1,59.9,48.4,39.1,45.4,37.2,23.2,96,69,32,30.28,30.12,7,1,7,0.00
2013-1-2,64.8,50.2,37.0,36.8,30.0,19.3,82,51,19,30.17,30.06,13,2,13,0.00
2013-1-3,71.5,48.6,34.4,48.7,34.7,21.3,91,64,16,30.22,30.08,13,1,13,0.00
2013-1-4,68.8,48.0,33.5,37.8,29.2,19.4,89,56,18,30.31,30.21,8,1,8,0.00
2013-1-5,64.3,46.9,33.9,43.0,35.5,29.5,87,68,28,30.33,30.22,11,1,11,0.00
2013-1-6,58.1,49.1,41.8,51.1,44.8,38.9,98,86,64,30.25,30.05,16,2,16,0.11
2013-1-7,66.5,51.1,40.5,45.2,39.6,25.1,99,69,22,30.12,30.00,17,3,17,0.00
2013-1-8,72.0,51.3,37.9,51.0,43.9,35.7,96,78,42,30.14,30.04,10,1,10,0.00
2013-1-9,69.8,53.5,41.5,52.7,47.6,40.7,98,83,47,30.16,30.04,10,1,10,0.01
2013-1-10,55.9,52.0,46.6,50.8,40.6,24.6,96,67,39,30.12,29.95,25,5,25,0.01
2013-1-11,54.2,45.7,32.5,33.9,28.5,19.8,88,53,28,30.22,30.09,17,3,19,0.00
2013-1-12,54.2,42.7,31.5,33.6,29.3,22.0,86,62,30,30.19,30.10,12,1,12,0.00
2013-1-13,56.7,42.5,30.6,37.2,30.6,23.0,92,68,29,30.20,30.09,11,1,11,0.00
2013-1-14,56.1,43.7,30.3,32.2,13.2,-5.1,88,37,8,30.37,30.16,18,2,18,0.00
2013-1-15,50.4,34.5,30.3,28.0,22.3,16.7,74,61,39,30.48,30.36,4,0,4,0.00
2013-2-9,56.9,45.5,34.3,45.7,39.6,33.8,99,82,49,30.14,29.96,4,1,13,0.00
2013-2-10,54.5,46.5,37.4,45.1,41.3,36.3,97,83,62,30.15,30.05,3,1,9,0.01
2013-2-11,59.1,48.5,36.9,47.6,42.6,36.1,98,82,51,30.26,30.09,6,2,15,0.01
2013-2-12,61.9,48.4,34.8,48.7,40.8,33.8,97,77,54,30.37,30.27,5,1,13,0.00
2013-2-13,65.5,50.2,36.8,48.4,42.2,35.7,96,76,51,30.29,30.16,5,1,11,0.00
2013-2-14,70.1,53.8,38.4,50.8,44.5,37.4,97,74,43,30.23,30.07,5,1,11,0.00
2013-2-15,82.0,67.7,43.3,44.5,31.0,20.9,91,30,11,30.20,30.12,13,2,13,0.00
2013-2-16,83.6,61.2,44.6,42.2,28.6,15.7,66,36,10,30.17,30.00,13,1,13,0.00
2013-2-17,65.0,52.8,41.0,52.2,44.3,31.6,88,73,48,30.06,29.96,14,2,14,0.00
2013-2-18,63.4,54.2,50.8,49.1,46.5,43.5,87,76,56,30.09,29.99,13,2,13,0.00
2013-2-19,53.8,50.6,46.3,51.3,44.0,40.6,93,79,68,30.02,29.75,19,3,19,0.36
2013-2-20,56.7,49.6,40.7,42.5,37.6,28.3,81,64,39,30.04,29.74,29,4,29,0.00
2013-2-21,60.4,50.2,42.4,46.5,42.6,38.7,93,76,51,30.12,30.00,14,2,14,0.00
2013-2-22,63.9,49.3,36.5,49.0,42.2,35.4,98,78,37,30.23,30.12,13,2,13,0.00
2013-2-23,62.6,49.8,37.5,48.7,42.9,35.6,96,79,47,30.20,29.96,14,2,14,0.00
2013-2-24,69.2,54.8,40.5,47.3,25.6,-0.9,99,47,7,30.23,30.01,24,2,24,0.01
2013-2-25,67.5,51.8,36.5,41.5,30.7,17.6,83,49,15,30.24,30.10,13,2,13,0.00
2013-2-26,68.0,51.6,36.3,48.8,41.9,33.0,90,72,41,30.14,30.01,12,2,12,0.00
2013-2-27,72.6,55.6,39.1,43.3,31.2,18.5,91,48,15,30.29,30.14,15,2,15,0.00
2013-2-28,79.0,59.2,39.5,40.9,27.2,14.4,77,37,9,30.32,30.25,14,2,14,0.00
2013-3-1,86.5,65.1,45.1,42.7,29.8,19.7,66,33,10,30.32,30.15,16,2,16,0.00
2013-3-2,84.0,64.5,47.6,43.1,32.4,22.6,68,36,12,30.22,30.09,12,1,12,0.00
2013-3-3,74.2,58.2,48.8,53.9,46.2,34.1,94,67,32,30.13,30.01,15,2,15,0.00
2013-3-4,67.8,57.2,51.4,53.4,51.0,48.3,93,80,59,30.13,30.04,13,2,13,0.00
2013-3-5,60.7,54.9,51.4,53.3,50.8,48.5,92,86,76,30.15,30.06,11,2,11,0.00
2013-3-6,62.7,55.3,48.4,51.1,46.3,43.1,91,73,52,30.18,30.04,13,2,13,0.00
2013-3-7,59.1,53.6,49.7,52.2,49.6,45.2,97,87,70,30.04,29.88,11,1,11,0.09
2013-3-8,57.1,50.7,46.2,49.5,45.6,40.7,98,83,60,30.07,29.80,21,2,21,0.89
2013-3-9,61.5,53.7,45.3,48.7,45.8,41.9,90,75,58,30.24,30.06,12,2,16,0.00
2013-3-10,72.2,55.2,40.6,51.6,42.0,32.6,98,66,27,30.29,30.17,16,2,16,0.00
2013-3-11,72.0,55.8,40.8,50.7,43.7,37.5,92,67,34,30.20,30.06,11,2,11,0.00
2013-3-12,79.2,58.6,42.6,55.0,49.3,42.1,99,76,32,30.11,30.01,10,1,10,0.00
2013-3-13,83.4,59.4,46.4,57.2,50.8,44.4,97,77,39,30.12,30.03,11,1,11,0.00
2013-3-14,79.3,60.8,49.5,60.3,53.1,49.0,100,80,43,30.11,30.01,13,2,13,0.00
2013-3-15,75.1,57.9,51.0,57.1,52.8,50.1,99,85,49,30.07,29.96,11,2,11,0.00
2013-3-16,65.5,55.0,49.7,54.1,51.4,49.2,99,88,65,30.00,29.92,13,2,13,0.00
2013-3-17,64.8,57.3,53.2,54.1,52.2,50.6,94,84,66,30.02,29.95,13,3,13,0.00
2013-3-18,63.4,57.1,51.9,52.3,51.4,50.1,94,82,66,30.11,30.01,11,2,12,0.00
2013-3-19,66.5,56.9,49.3,55.1,52.0,48.1,97,84,65,30.15,30.07,10,2,12,0.00
2013-3-20,70.9,58.3,48.7,57.5,52.5,47.9,99,82,54,30.12,30.00,9,2,12,0.00
2013-3-21,69.0,58.9,51.7,55.5,52.5,48.4,96,81,54,30.00,29.83,12,2,13,0.00
2013-3-22,67.8,57.5,50.3,55.9,52.5,49.2,98,84,62,29.94,29.83,14,2,14,0.00
2013-3-23,67.5,57.1,48.1,54.4,51.7,46.7,97,83,60,30.04,29.93,13,2,13,0.00
2013-3-24,73.3,59.2,49.7,57.1,52.5,48.0,97,81,48,30.04,29.91,11,2,11,0.00
2013-3-25,76.0,59.8,51.7,57.3,53.7,49.0,99,83,48,30.00,29.91,11,2,12,0.00
2013-3-26,67.2,57.7,52.3,57.0,53.2,50.3,96,85,65,30.00,29.92,11,2,11,0.00
2013-3-27,64.8,57.4,51.8,54.4,52.3,49.8,95,84,68,30.07,29.95,13,2,13,0.00
2013-3-28,73.3,60.0,53.3,56.4,53.8,50.9,96,81,55,30.09,30.02,13,2,13,0.00
2013-3-29,66.5,58.5,53.3,57.7,55.1,52.2,97,89,69,30.14,30.06,14,2,14,0.00
2013-3-30,69.5,59.2,52.9,58.3,54.4,49.5,97,85,66,30.15,30.08,12,2,12,0.00
2013-3-31,67.2,58.3,51.4,57.6,54.3,50.1,97,87,67,30.15,30.08,14,2,14,0.00
2013-4-1,66.5,58.5,53.9,54.7,52.5,50.1,95,82,57,30.19,30.10,20,3,20,0.00
2013-4-2,66.8,58.5,52.3,55.0,53.1,51.0,97,83,61,30.12,30.01,12,2,12,0.00
2013-4-3,76.3,59.6,50.5,58.8,54.6,49.0,97,85,54,30.11,30.00,14,2,14,0.00
2013-4-4,72.0,60.9,55.7,58.7,55.1,53.4,96,83,56,30.13,30.03,13,3,13,0.00
2013-4-5,66.8,59.1,55.9,58.4,55.7,53.9,99,89,70,30.12,30.02,13,2,13,0.01
2013-4-6,67.8,60.3,55.4,57.3,54.9,52.1,95,83,66,30.11,29.98,14,2,14,0.00
2013-4-7,70.0,58.8,50.7,56.7,54.0,49.6,98,85,60,30.00,29.84,12,2,12,0.00
2013-4-8,62.8,57.7,51.2,55.2,49.6,45.5,92,75,57,29.85,29.71,25,5,25,0.00
2013-4-9,69.9,57.4,44.5,52.0,43.0,27.1,95,64,22,30.03,29.83,20,3,20,0.00
2013-4-10,76.8,61.1,44.3,50.8,42.2,32.0,87,54,20,30.10,30.01,17,2,17,0.00
2013-4-11,72.3,58.3,46.8,55.2,48.9,41.9,88,73,39,30.03,29.82,21,3,21,0.00
2013-4-12,69.5,59.9,54.9,55.5,53.0,50.9,94,79,59,29.92,29.80,14,3,14,0.00
2013-4-13,59.8,56.8,54.7,55.6,53.8,49.9,95,89,83,29.94,29.87,13,2,13,0.00
2013-4-14,62.7,56.1,52.4,55.1,51.5,49.3,94,85,73,29.91,29.85,15,3,15,0.00
2013-4-15,60.9,56.6,52.9,55.3,51.8,48.2,94,84,73,29.94,29.86,15,3,15,0.05
2013-4-16,61.3,54.9,48.7,48.3,45.8,38.5,90,72,46,30.02,29.89,17,3,17,0.00
2013-4-17,70.8,57.3,41.5,45.2,34.2,22.2,93,50,17,30.14,30.01,19,3,19,0.00
2013-4-18,76.0,63.4,44.5,36.1,25.6,13.6,71,29,10,30.20,30.12,20,3,20,0.00
2013-4-19,83.3,65.2,44.6,46.1,28.4,13.4,71,33,8,30.17,29.99,18,3,18,0.00
2013-4-20,80.7,64.5,49.0,57.2,47.7,38.0,93,60,22,30.02,29.89,12,2,12,0.00
2013-4-21,79.2,62.7,54.9,58.8,54.8,39.3,98,79,26,30.03,29.96,13,2,13,0.00
2013-4-22,68.7,59.2,55.0,55.8,53.4,51.4,91,82,62,30.03,29.93,14,3,14,0.00
2013-4-23,68.8,60.1,55.8,54.7,52.7,51.0,88,77,59,30.00,29.88,14,3,14,0.00
2013-4-24,62.9,58.0,55.5,56.2,53.8,49.4,96,86,68,30.01,29.92,9,2,9,0.02
2013-4-25,70.5,61.0,54.1,56.4,52.9,48.8,94,76,50,30.14,29.98,14,2,14,0.00
2013-4-26,72.8,61.6,48.9,56.1,52.4,47.5,97,75,47,30.17,30.11,16,3,16,0.00
2013-4-27,74.8,60.9,51.6,60.1,55.4,50.2,99,83,58,30.18,30.01,13,2,13,0.00
2013-4-28,72.2,61.2,57.2,60.5,56.7,55.3,96,86,64,30.05,29.89,14,2,14,0.00
2013-4-29,68.8,60.0,56.2,58.9,55.9,54.0,97,87,68,29.93,29.81,12,3,12,0.00
2013-4-30,67.3,60.0,57.1,56.6,54.6,53.1,94,83,67,29.92,29.84,18,4,18,0.00
2013-5-1,70.9,62.8,56.5,58.5,56.4,54.5,95,81,61,30.11,29.92,13,2,13,0.00
2013-5-2,90.7,69.0,51.9,59.9,52.2,39.1,98,64,17,30.13,29.97,17,2,17,0.00
2013-5-3,93.3,72.0,51.6,59.3,39.3,5.0,93,49,4,30.03,29.79,12,2,12,0.00
2013-5-4,68.5,61.7,57.9,58.2,55.8,52.6,95,81,66,29.88,29.78,21,5,21,0.00
2013-5-5,64.3,60.1,57.3,55.8,54.2,52.1,94,81,68,29.97,29.85,22,4,22,0.03
2013-5-6,66.3,60.5,56.8,59.1,56.8,52.6,98,88,64,30.04,29.92,19,4,19,0.23
2013-5-7,69.8,61.5,55.1,57.7,53.7,46.3,97,77,44,30.10,30.00,17,2,17,0.00
2013-5-8,67.5,60.6,53.4,58.1,54.0,48.8,96,80,56,30.12,30.08,15,2,15,0.00
2013-5-9,69.2,60.9,51.4,58.2,55.0,50.3,98,82,65,30.12,30.05,14,2,14,0.00
2013-5-10,75.5,64.2,54.4,60.9,57.4,52.7,96,80,59,30.11,30.02,14,2,14,0.00
2013-5-11,83.0,66.5,56.6,64.5,60.3,55.1,97,82,52,30.10,29.98,17,2,17,0.00
2013-5-12,93.8,74.1,59.9,66.1,58.5,45.3,99,66,20,30.07,29.91,12,2,12,0.00
2013-5-13,97.5,78.0,61.7,63.7,55.8,45.7,89,53,20,29.97,29.87,14,2,14,0.00
2013-5-14,78.2,65.9,57.7,60.1,56.5,52.8,91,73,47,30.02,29.91,13,3,13,0.00
2013-5-15,71.0,63.0,59.3,57.7,55.9,54.2,89,78,61,30.06,29.98,14,4,14,0.00
2013-5-16,71.5,63.4,59.5,58.8,56.3,54.0,86,78,60,30.00,29.92,13,3,13,0.00
2013-5-17,72.8,64.3,59.9,59.6,57.4,54.8,91,79,62,30.02,29.92,15,3,15,0.00
2013-5-18,70.8,63.5,56.1,58.8,56.9,54.1,94,80,60,30.05,29.98,13,2,13,0.00
2013-5-19,72.0,63.7,56.6,59.3,57.2,53.9,93,80,62,30.01,29.90,13,2,13,0.00
2013-5-20,78.7,65.6,58.0,62.1,59.1,55.2,94,81,51,29.97,29.90,16,3,16,0.00
2013-5-21,75.8,65.4,60.5,62.7,59.9,58.1,95,84,62,29.96,29.86,13,3,13,0.00
2013-5-22,71.8,64.3,61.3,58.7,57.0,55.4,87,78,62,29.87,29.81,14,4,15,0.00
2013-5-23,69.9,62.6,55.7,56.7,54.9,51.9,89,77,58,29.96,29.84,12,3,17,0.00
2013-5-24,68.8,61.2,53.9,56.0,53.5,50.1,90,76,62,30.02,29.93,14,3,14,0.00
2013-5-25,69.3,60.6,50.1,56.8,53.3,47.9,94,78,59,30.05,29.99,14,2,14,0.00
2013-5-26,67.5,61.6,55.7,56.5,54.6,52.3,90,78,66,30.08,30.01,14,3,14,0.00
2013-5-27,72.3,62.6,53.4,59.5,56.2,51.7,95,81,58,30.03,29.89,15,2,15,0.00
2013-5-28,72.2,65.5,60.4,60.0,58.0,55.8,92,77,62,29.91,29.77,16,3,16,0.00
2013-5-29,75.6,65.8,60.4,61.5,59.5,57.6,92,81,56,29.83,29.74,12,2,13,0.00
2013-5-30,73.8,65.2,57.6,62.4,59.5,56.0,96,83,65,29.91,29.78,13,3,13,0.00
2013-5-31,74.3,66.8,60.9,61.5,59.4,57.5,90,78,63,29.92,29.83,13,4,13,0.00
2013-9-6,97.2,95.8,94.1,58.9,56.8,53.5,31,27,24,29.81,29.78,12,6,12,0.00
2013-10-3,69.8,65.1,62.6,61.5,59.2,57.0,88,81,73,29.94,29.85,6,2,13,0.00
2013-10-4,86.1,69.2,59.9,61.0,55.9,20.7,93,69,9,30.04,29.90,7,2,14,0.00
2013-10-5,92.1,76.0,61.3,46.9,28.8,13.9,59,21,6,30.10,30.02,5,3,19,0.00
2013-10-6,90.5,73.2,57.1,45.5,32.7,12.9,60,27,6,30.08,29.96,7,2,16,0.00
2013-10-7,83.8,68.3,59.2,58.4,48.4,40.1,90,52,26,29.98,29.91,5,1,14,0.00
2013-10-8,68.3,62.0,57.2,58.3,55.6,52.3,92,80,68,29.94,29.85,6,2,15,0.00
2013-10-9,64.7,56.4,52.2,55.2,51.9,49.2,96,86,63,29.84,29.75,20,3,20,0.78
2013-10-10,69.7,57.3,47.2,56.8,50.7,46.1,99,81,49,30.03,29.82,12,1,12,0.10
2013-10-11,73.7,59.9,48.5,58.2,52.9,46.4,98,80,50,30.06,29.96,15,1,15,0.00